Location: Bannatyne
(13.0833°N, 59.5333°W)
Time: 03:27:41
(UTC+00:00)

deb Explorer IX - Pass Details

Date: 28 January 2020
Orbit: 549 x 1099 km, 38.8° (Epoch: 16 February)

Event Time Altitude Azimuth Distance (km) Brightness Sun altitude
Rises 23:17:25 0° 266° (W) 3,335 ? -19.6°
Reaches altitude 10° 23:20:18 10° 280° (W) 2,502 ? -20.2°
Maximum altitude 23:25:02 24° 332° (NNW) 1,860 ? -21.3°
Enters shadow 23:28:53 15° 14° (NNE) 2,429 ? -22.3°
Drops below altitude 10° 23:30:16 10° 23° (NNE) 2,788 - -22.6°
Sets 23:33:42 0° 37° (NE) 3,810 - -23.4°
